Hourly Weather Basar

Today, 19 June, Saturday

Time Temperature Precipitation Wind Pressure Humidity
00:00 +24°C° 0 mm 2 mps 763 mmHg 63%
01:00 +24°C° 0 mm 2 mps 763 mmHg 65%
02:00 +23°C° 0 mm 2 mps 762 mmHg 67%
03:00 +23°C° 0 mm 2 mps 762 mmHg 69%
04:00 +24°C° 0 mm 2 mps 763 mmHg 66%
05:00 +26°C° 0 mm 3 mps 763 mmHg 64%
06:00 +27°C° 0 mm 3 mps 763 mmHg 61%
07:00 +29°C° 0 mm 5 mps 763 mmHg 55%
08:00 +30°C° 0 mm 7 mps 763 mmHg 49%
09:00 +33°C° 0 mm 9 mps 763 mmHg 44%
10:00 +33°C° 0 mm 9 mps 763 mmHg 39%
11:00 +34°C° 0 mm 10 mps 763 mmHg 35%
12:00 +34°C° 0 mm 10 mps 763 mmHg 31%
13:00 +34°C° 0 mm 10 mps 762 mmHg 33%
14:00 +34°C° 0 mm 11 mps 762 mmHg 36%
15:00 +33°C° 0 mm 11 mps 762 mmHg 39%
16:00 +32°C° 0 mm 11 mps 762 mmHg 45%
17:00 +31°C° 0 mm 11 mps 762 mmHg 51%
18:00 +28°C° 0 mm 11 mps 761 mmHg 57%
19:00 +28°C° 0 mm 10 mps 762 mmHg 61%
20:00 +27°C° 0 mm 10 mps 762 mmHg 65%
21:00 +26°C° 0 mm 9 mps 762 mmHg 69%
22:00 +26°C° 0 mm 9 mps 762 mmHg 67%
23:00 +26°C° 0 mm 10 mps 761 mmHg 66%

Tomorrow, 20 June, Sunday

Time Temperature Precipitation Wind Pressure Humidity
00:00 +27°C° 0 mm 10 mps 761 mmHg 64%
01:00 +27°C° 0 mm 10 mps 761 mmHg 63%
02:00 +27°C° 0 mm 10 mps 761 mmHg 63%
03:00 +27°C° 0 mm 10 mps 761 mmHg 62%
04:00 +27°C° 0 mm 11 mps 761 mmHg 62%
05:00 +27°C° 0 mm 11 mps 761 mmHg 61%
06:00 +27°C° 0 mm 12 mps 761 mmHg 60%
07:00 +28°C° 0 mm 13 mps 761 mmHg 57%
08:00 +28°C° 0 mm 13 mps 762 mmHg 54%
09:00 +29°C° 0 mm 14 mps 762 mmHg 51%
10:00 +29°C° 0 mm 13 mps 762 mmHg 49%
11:00 +29°C° 0 mm 13 mps 762 mmHg 46%
12:00 +31°C° 0 mm 13 mps 762 mmHg 44%
13:00 +31°C° 0 mm 12 mps 762 mmHg 42%
14:00 +31°C° 0 mm 12 mps 762 mmHg 41%
15:00 +31°C° 0 mm 11 mps 762 mmHg 39%
16:00 +29°C° 0 mm 10 mps 762 mmHg 42%
17:00 +28°C° 0 mm 9 mps 762 mmHg 44%
18:00 +28°C° 0 mm 8 mps 762 mmHg 47%
19:00 +27°C° 0 mm 8 mps 762 mmHg 50%
20:00 +27°C° 0 mm 8 mps 762 mmHg 53%
21:00 +26°C° 0 mm 8 mps 762 mmHg 56%
22:00 +26°C° 0 mm 7 mps 762 mmHg 58%
23:00 +26°C° 0 mm 7 mps 762 mmHg 59%

Day after tomorrow, 21 June, Monday

Time Temperature Precipitation Wind Pressure Humidity
00:00 +24°C° 0 mm 7 mps 762 mmHg 61%
01:00 +26°C° 0 mm 8 mps 762 mmHg 59%
02:00 +26°C° 0 mm 8 mps 762 mmHg 58%
03:00 +26°C° 0 mm 9 mps 762 mmHg 57%
04:00 +27°C° 0 mm 9 mps 762 mmHg 56%
05:00 +27°C° 0 mm 9 mps 762 mmHg 55%
06:00 +28°C° 0 mm 10 mps 762 mmHg 53%
07:00 +29°C° 0 mm 10 mps 762 mmHg 48%
08:00 +31°C° 0 mm 10 mps 763 mmHg 42%
09:00 +32°C° 0 mm 10 mps 763 mmHg 37%
10:00 +32°C° 0 mm 10 mps 763 mmHg 35%
11:00 +33°C° 0 mm 10 mps 763 mmHg 34%
12:00 +33°C° 0 mm 10 mps 763 mmHg 32%
13:00 +33°C° 0 mm 10 mps 763 mmHg 32%
14:00 +33°C° 0 mm 10 mps 762 mmHg 32%
15:00 +32°C° 0 mm 10 mps 762 mmHg 33%
16:00 +31°C° 0 mm 10 mps 762 mmHg 34%
17:00 +31°C° 0 mm 9 mps 762 mmHg 36%
18:00 +29°C° 0 mm 9 mps 762 mmHg 37%
19:00 +28°C° 0 mm 9 mps 762 mmHg 43%
20:00 +27°C° 0 mm 9 mps 762 mmHg 49%
21:00 +26°C° 0 mm 9 mps 762 mmHg 54%
22:00 +26°C° 0 mm 9 mps 761 mmHg 54%
23:00 +26°C° 0 mm 8 mps 761 mmHg 55%

22 June, Tuesday

Time Temperature Precipitation Wind Pressure Humidity
00:00 +26°C° 0 mm 8 mps 761 mmHg 55%
01:00 +26°C° 0 mm 8 mps 761 mmHg 56%
02:00 +26°C° 0 mm 7 mps 761 mmHg 57%
03:00 +26°C° 0 mm 7 mps 761 mmHg 58%
04:00 +26°C° 0 mm 7 mps 761 mmHg 57%
05:00 +27°C° 0 mm 8 mps 761 mmHg 56%
06:00 +28°C° 0 mm 8 mps 761 mmHg 55%
07:00 +29°C° 0 mm 8 mps 761 mmHg 49%
08:00 +32°C° 0 mm 8 mps 761 mmHg 42%
09:00 +33°C° 0 mm 9 mps 761 mmHg 35%
10:00 +34°C° 0 mm 9 mps 761 mmHg 34%
11:00 +34°C° 0 mm 9 mps 762 mmHg 34%
12:00 +35°C° 0 mm 9 mps 762 mmHg 33%
13:00 +34°C° 0 mm 9 mps 762 mmHg 33%
14:00 +34°C° 0 mm 9 mps 761 mmHg 32%
15:00 +34°C° 0 mm 9 mps 761 mmHg 32%
16:00 +33°C° 0 mm 8 mps 761 mmHg 36%
17:00 +32°C° 0 mm 8 mps 761 mmHg 40%
18:00 +31°C° 0 mm 8 mps 761 mmHg 44%
19:00 +29°C° 0 mm 8 mps 761 mmHg 49%
20:00 +28°C° 0 mm 7 mps 762 mmHg 55%
21:00 +27°C° 0 mm 7 mps 762 mmHg 60%
22:00 +26°C° 0 mm 7 mps 762 mmHg 62%
23:00 +26°C° 0 mm 6 mps 762 mmHg 64%

23 June, Wednesday

Time Temperature Precipitation Wind Pressure Humidity
00:00 +26°C° 0 mm 6 mps 762 mmHg 66%
01:00 +24°C° 0 mm 6 mps 761 mmHg 67%
02:00 +24°C° 0 mm 6 mps 761 mmHg 69%
03:00 +25°C° 0 mm 5 mps 761 mmHg 70%
04:00 +26°C° 0 mm 7 mps 762 mmHg 64%
05:00 +27°C° 0 mm 8 mps 762 mmHg 58%
06:00 +29°C° 0 mm 9 mps 762 mmHg 53%
07:00 +31°C° 0 mm 9 mps 762 mmHg 48%
08:00 +32°C° 0 mm 10 mps 762 mmHg 43%
09:00 +33°C° 0 mm 10 mps 762 mmHg 38%
10:00 +33°C° 0 mm 10 mps 762 mmHg 37%
11:00 +33°C° 0 mm 10 mps 763 mmHg 37%
12:00 +34°C° 0 mm 10 mps 763 mmHg 36%
13:00 +33°C° 0 mm 10 mps 763 mmHg 37%
14:00 +33°C° 0 mm 10 mps 763 mmHg 38%
15:00 +33°C° 0 mm 9 mps 763 mmHg 39%
16:00 +32°C° 0 mm 8 mps 762 mmHg 39%
17:00 +31°C° 0 mm 8 mps 762 mmHg 40%
18:00 +30°C° 0 mm 7 mps 762 mmHg 40%
19:00 +28°C° 0 mm 7 mps 762 mmHg 47%
20:00 +27°C° 0 mm 6 mps 763 mmHg 54%
21:00 +24°C° 0 mm 6 mps 763 mmHg 61%
22:00 +24°C° 0 mm 6 mps 763 mmHg 62%
23:00 +25°C° 0 mm 5 mps 762 mmHg 64%

24 June, Thursday

Time Temperature Precipitation Wind Pressure Humidity
00:00 +23°C° 0 mm 5 mps 762 mmHg 65%
01:00 +23°C° 0 mm 5 mps 762 mmHg 64%
02:00 +23°C° 0 mm 4 mps 762 mmHg 62%
03:00 +23°C° 0 mm 4 mps 762 mmHg 61%
04:00 +26°C° 0 mm 4 mps 762 mmHg 54%
05:00 +27°C° 0 mm 4 mps 762 mmHg 48%
06:00 +29°C° 0 mm 4 mps 762 mmHg 41%
07:00 +30°C° 0 mm 5 mps 762 mmHg 38%
08:00 +33°C° 0 mm 6 mps 762 mmHg 35%
09:00 +34°C° 0 mm 7 mps 762 mmHg 32%
10:00 +34°C° 0 mm 7 mps 763 mmHg 32%
11:00 +35°C° 0 mm 7 mps 763 mmHg 33%
12:00 +35°C° 0 mm 7 mps 763 mmHg 33%
13:00 +35°C° 0 mm 7 mps 763 mmHg 31%
14:00 +35°C° 0 mm 7 mps 763 mmHg 29%
15:00 +35°C° 0 mm 7 mps 763 mmHg 27%
16:00 +34°C° 0 mm 6 mps 763 mmHg 30%
17:00 +33°C° 0 mm 6 mps 763 mmHg 34%
18:00 +32°C° 0 mm 5 mps 763 mmHg 37%
19:00 +29°C° 0 mm 5 mps 763 mmHg 47%
20:00 +27°C° 0 mm 5 mps 763 mmHg 57%
21:00 +25°C° 0 mm 4 mps 763 mmHg 68%
22:00 +25°C° 0 mm 4 mps 763 mmHg 67%
23:00 +25°C° 0 mm 4 mps 763 mmHg 66%
Show more